Tracking 18785 objects as of 27-July-2017
HD Live streaming from Space Station
objects crossing your sky now
MAYAK may become the brightest orbital object in the night sky!
Where is MAYAK now?
How to spot MAYAK

H-1 R/B(1)

Track H-1 R/B(1) now!
10-day predictions


NORAD ID: 20230
Int'l Code: 1989-070B
Perigee: 190.0 km
Apogee: 4,705.9 km
Inclination: 28.2 °
Period: 137.4 minutes
Semi major axis: 8818 km
RCS: 2.9914 m2 (large)
Launch date: September 5, 1989
Source: Japan (JPN)
Launch site: TANEGASHIMA SPACE CENTER (TNSTA)

Note: This is a ROCKET BODY
Your satellite tracking list
Your tracking list is empty





NASA's NSSDC Master Catalog

Two Line Element Set (TLE):
1 20230U 89070B   17207.87738658 +.00159456 -22726-5 +59261-3 0  9991
2 20230 028.2169 178.9080 2560343 282.0086 050.7308 10.48280975514905
Source of the keplerian elements: AFSPC